This is the latest recevied weather packets stored in our database for station/object N7NIP. If no packets are shown the sender has not sent any weather packets the latest 1 day(s).
| Time | Temp. | Humidity | Pressure | Rain* | Wind** | Luminosity | Snow |
|---|---|---|---|---|---|---|---|
| 1778099827 | 13.89° C | 82% | 1034.8 hPa | 0 mm | - | 238 W/m² | - |
| 1778097704 | 12.78° C | 87% | 1034.7 hPa | 0 mm | - | 209 W/m² | - |
| 1778097401 | 12.78° C | 88% | 1034.9 hPa | 0 mm | - | 242 W/m² | - |
| 1778097097 | 12.78° C | 87% | 1034.8 hPa | 0 mm | - | 228 W/m² | - |
| 1778094975 | 12.78° C | 89% | 1034.4 hPa | 0 mm | - | 218 W/m² | - |
| 1778094671 | 12.78° C | 89% | 1034.6 hPa | 0 mm | - | 227 W/m² | - |
| 1778094369 | 12.78° C | 90% | 1034.4 hPa | 0 mm | - | 195 W/m² | - |
| 1778093459 | 12.78° C | 89% | 1034.2 hPa | 0 mm | - | 128 W/m² | - |
| 1778092246 | 12.78° C | 91% | 1034.2 hPa | 0 mm | - | 136 W/m² | - |
| 1778091035 | 12.78° C | 91% | 1034.2 hPa | 0 mm | - | 134 W/m² | - |
| 1778090125 | 12.78° C | 91% | 1034.1 hPa | 0 mm | - | 122 W/m² | - |
| 1778089520 | 12.78° C | 93% | 1033.9 hPa | 0 mm | - | 158 W/m² | - |
| 1778086794 | 12.22° C | 93% | 1034.2 hPa | 0 mm | - | 99 W/m² | - |
| 1778084066 | 11.67° C | 95% | 1033.8 hPa | 0 mm | - | 81 W/m² | - |
| 1778083763 | 11.67° C | 96% | 1033.8 hPa | 0 mm | - | 87 W/m² | - |
| 1778083460 | 11.67° C | 96% | 1033.7 hPa | 0 mm | - | 96 W/m² | - |
| 1778081731 | 11.67° C | 97% | 1033.6 hPa | 0 mm | - | 61 W/m² | - |
| 1778081125 | 11.67° C | 97% | 1033.9 hPa | 0 mm | - | 48 W/m² | - |
| 1778080218 | 11.11° C | 98% | 1033.8 hPa | 0 mm | - | 47 W/m² | - |
| 1778079914 | 11.11° C | 98% | 1033.9 hPa | 0 mm | - | 41 W/m² | - |
| 1778078702 | 11.11° C | 99% | 1033.6 hPa | 0 mm | - | 57 W/m² | - |
| 1778077190 | 11.11° C | 99% | 1033.3 hPa | 0 mm | - | 42 W/m² | - |
| 1778076888 | 11.11° C | 99% | 1033.4 hPa | 0 mm | - | 36 W/m² | - |
| 1778076283 | 11.11° C | 99% | 1033.4 hPa | 0 mm | - | 28 W/m² | - |
| 1778075677 | 11.11° C | 99% | 1033.2 hPa | 0 mm | - | 16 W/m² | - |
* Rain latest hour (hover to see other rain measurements)
** Current wind speed in m/s (hover to see current wind gust speed)